Regional Weather Roundup
Issued by NWS

Home | Current Version | Previous Version | Text Only | Print | Product List | Glossary On
Versions: 1 2 3 4 5 6 7 8 9 10 11 12 13 14 15 16 17 18 19 20 21 22 23 24 25 26 27 28 29 30 31 32 33 34 35 36 37 38 39 40 41 42 43 44 45 46 47 48 49 50
000
ASUS43 KBIS 210910
RWRND

NORTH DAKOTA REGIONAL WEATHER ROUNDUP
NATIONAL WEATHER SERVICE BISMARCK ND
300 AM CST TUE NOV 21 2017

NOTE: "FAIR" INDICATES FEW OR NO CLOUDS BELOW 12,000 FEET WITH NO
SIGNIFICANT WEATHER AND/OR OBSTRUCTIONS TO VISIBILITY.


NDZ001>003-009>011-017-211000-
NORTHWEST NORTH DAKOTA

CITY           SKY/WX    TMP DP  RH WIND       PRES   REMARKS
WILLISTON      CLOUDY     5  -2  72 W8        30.21R WCI  -8
MINOT          CLEAR      9   2  73 W21G30    30.07R WCI -11
MINOT AFB      CLEAR      9   2  73 NW24G30   30.05R WCI -12
$$

NDZ018>021-031>035-040>046-211000-
SOUTHWEST NORTH DAKOTA

CITY           SKY/WX    TMP DP  RH WIND       PRES   REMARKS
BISMARCK       CLOUDY    19   7  59 NW20G28   30.07R WCI   3
DICKINSON      CLOUDY     8   0  69 NW18      30.07R WCI -11
GARRISON         N/A      8   3  80 NW23      30.07R WCI -13
HETTINGER ARPT CLOUDY    14  -2  49 NW26G33   30.07R WCI  -6
$$

NDZ004>008-012>016-024-026-027-054-211000-
NORTHEAST NORTH DAKOTA

CITY           SKY/WX    TMP DP  RH WIND       PRES   REMARKS
GRAND FORKS    FLURRIES  18  12  77 NW28G40   29.86R WCI  -1
GRND FRKS AFB  FLURRIES  17  11  76 N21G29    29.87R WCI   1
DEVILS LAKE    CLEAR     14   8  77 NW24      29.92R WCI  -5
$$

NDZ022-023-025-028>030-036>039-047>053-211000-
SOUTHEAST NORTH DAKOTA

CITY           SKY/WX    TMP DP  RH WIND       PRES   REMARKS
FARGO          CLOUDY    22  10  60 NW28G45   29.84R WCI   4
JAMESTOWN      CLOUDY    16   8  71 NW33G43   29.91R WCI  -5
$$





USA.gov is the U.S. government's official web portal to all federal, state and local government web resources and services.